Hourly Weather Kitimat

Today, 27 July, Tuesday

Time Temperature Precipitation Wind Pressure Humidity
00:00 +12°C° 0 mm 0 mps 760 mmHg 93%
01:00 +12°C° 0 mm 0 mps 760 mmHg 92%
02:00 +12°C° 0 mm 0 mps 760 mmHg 92%
03:00 +12°C° 0 mm 0 mps 760 mmHg 91%
04:00 +13°C° 0 mm 0 mps 761 mmHg 89%
05:00 +13°C° 0 mm 0 mps 761 mmHg 87%
06:00 +14°C° 0 mm 0 mps 761 mmHg 85%
07:00 +16°C° 0 mm 0 mps 761 mmHg 76%
08:00 +17°C° 0 mm 0 mps 760 mmHg 67%
09:00 +21°C° 0 mm 1 mps 760 mmHg 58%
10:00 +22°C° 0 mm 1 mps 760 mmHg 53%
11:00 +23°C° 0 mm 1 mps 760 mmHg 49%
12:00 +24°C° 0 mm 1 mps 760 mmHg 44%
13:00 +24°C° 0 mm 1 mps 760 mmHg 43%
14:00 +24°C° 0 mm 1 mps 760 mmHg 42%
15:00 +24°C° 0 mm 1 mps 760 mmHg 41%
16:00 +24°C° 0 mm 1 mps 760 mmHg 47%
17:00 +23°C° 0 mm 1 mps 760 mmHg 52%
18:00 +23°C° 0 mm 1 mps 760 mmHg 58%
19:00 +21°C° 0 mm 1 mps 760 mmHg 61%
20:00 +20°C° 0 mm 1 mps 760 mmHg 65%
21:00 +18°C° 0 mm 1 mps 761 mmHg 68%
22:00 +16°C° 0 mm 0 mps 761 mmHg 68%
23:00 +16°C° 0 mm 0 mps 761 mmHg 69%

Tomorrow, 28 July, Wednesday

Time Temperature Precipitation Wind Pressure Humidity
00:00 +16°C° 0 mm 0 mps 761 mmHg 69%
01:00 +16°C° 0.5 mm 0 mps 761 mmHg 77%
02:00 +15°C° 0.5 mm 0 mps 761 mmHg 84%
03:00 +14°C° 0.5 mm 0 mps 762 mmHg 92%
04:00 +14°C° 0.9 mm 0 mps 762 mmHg 93%
05:00 +14°C° 0.9 mm 0 mps 762 mmHg 95%
06:00 +14°C° 0.9 mm 0 mps 762 mmHg 96%
07:00 +14°C° 1.2 mm 0 mps 763 mmHg 96%
08:00 +14°C° 1.2 mm 0 mps 763 mmHg 97%
09:00 +15°C° 1.2 mm 0 mps 763 mmHg 97%
10:00 +15°C° 0.4 mm 0 mps 764 mmHg 95%
11:00 +15°C° 0.4 mm 0 mps 764 mmHg 93%
12:00 +16°C° 0.4 mm 0 mps 764 mmHg 91%
13:00 +16°C° 0 mm 0 mps 764 mmHg 91%
14:00 +16°C° 0 mm 0 mps 764 mmHg 91%
15:00 +16°C° 0 mm 0 mps 764 mmHg 91%
16:00 +17°C° 0 mm 0 mps 764 mmHg 90%
17:00 +17°C° 0 mm 0 mps 764 mmHg 90%
18:00 +19°C° 0 mm 1 mps 764 mmHg 89%
19:00 +18°C° 0 mm 1 mps 764 mmHg 91%
20:00 +16°C° 0 mm 1 mps 764 mmHg 93%
21:00 +15°C° 0 mm 1 mps 764 mmHg 95%
22:00 +15°C° 0 mm 1 mps 764 mmHg 95%
23:00 +15°C° 0 mm 1 mps 764 mmHg 95%

Day after tomorrow, 29 July, Thursday

Time Temperature Precipitation Wind Pressure Humidity
00:00 +15°C° 0 mm 1 mps 764 mmHg 94%
01:00 +15°C° 0 mm 1 mps 763 mmHg 94%
02:00 +14°C° 0 mm 1 mps 763 mmHg 94%
03:00 +14°C° 0 mm 1 mps 763 mmHg 94%
04:00 +16°C° 0 mm 1 mps 763 mmHg 91%
05:00 +18°C° 0 mm 1 mps 763 mmHg 88%
06:00 +19°C° 0 mm 1 mps 763 mmHg 85%
07:00 +21°C° 0 mm 1 mps 763 mmHg 76%
08:00 +23°C° 0 mm 1 mps 763 mmHg 68%
09:00 +25°C° 0 mm 1 mps 762 mmHg 59%
10:00 +27°C° 0 mm 1 mps 762 mmHg 54%
11:00 +28°C° 0 mm 1 mps 762 mmHg 49%
12:00 +30°C° 0 mm 1 mps 761 mmHg 44%
13:00 +30°C° 0 mm 1 mps 761 mmHg 42%
14:00 +31°C° 0 mm 1 mps 761 mmHg 40%
15:00 +31°C° 0 mm 1 mps 760 mmHg 39%
16:00 +30°C° 0 mm 1 mps 760 mmHg 45%
17:00 +29°C° 0 mm 1 mps 760 mmHg 52%
18:00 +26°C° 0 mm 0 mps 760 mmHg 58%
19:00 +26°C° 0 mm 1 mps 760 mmHg 64%
20:00 +23°C° 0 mm 1 mps 761 mmHg 69%
21:00 +21°C° 0 mm 1 mps 761 mmHg 75%
22:00 +21°C° 0 mm 1 mps 761 mmHg 76%
23:00 +20°C° 0 mm 1 mps 761 mmHg 78%

30 July, Friday

Time Temperature Precipitation Wind Pressure Humidity
00:00 +20°C° 0 mm 1 mps 761 mmHg 79%
01:00 +20°C° 0 mm 1 mps 761 mmHg 80%
02:00 +19°C° 0 mm 1 mps 760 mmHg 81%
03:00 +19°C° 0 mm 1 mps 760 mmHg 82%
04:00 +20°C° 0 mm 1 mps 760 mmHg 78%
05:00 +22°C° 0 mm 1 mps 760 mmHg 73%
06:00 +23°C° 0 mm 1 mps 760 mmHg 69%
07:00 +25°C° 0 mm 1 mps 760 mmHg 62%
08:00 +27°C° 0 mm 1 mps 759 mmHg 55%
09:00 +29°C° 0 mm 1 mps 759 mmHg 49%
10:00 +30°C° 0 mm 1 mps 759 mmHg 46%
11:00 +32°C° 0 mm 1 mps 759 mmHg 43%
12:00 +33°C° 0 mm 1 mps 758 mmHg 40%
13:00 +33°C° 0 mm 1 mps 758 mmHg 40%
14:00 +33°C° 0 mm 1 mps 758 mmHg 40%
15:00 +33°C° 0 mm 1 mps 758 mmHg 40%
16:00 +32°C° 0 mm 2 mps 758 mmHg 48%
17:00 +30°C° 0 mm 2 mps 758 mmHg 56%
18:00 +29°C° 0 mm 2 mps 758 mmHg 63%
19:00 +27°C° 0.1 mm 2 mps 758 mmHg 72%
20:00 +25°C° 0.1 mm 2 mps 759 mmHg 80%
21:00 +22°C° 0.1 mm 1 mps 759 mmHg 89%
22:00 +22°C° 0.3 mm 1 mps 759 mmHg 91%
23:00 +21°C° 0.3 mm 1 mps 759 mmHg 93%

31 July, Saturday

Time Temperature Precipitation Wind Pressure Humidity
00:00 +20°C° 0.3 mm 1 mps 759 mmHg 96%
01:00 +20°C° 0.1 mm 1 mps 759 mmHg 96%
02:00 +19°C° 0.1 mm 1 mps 760 mmHg 96%
03:00 +18°C° 0.1 mm 1 mps 760 mmHg 96%
04:00 +19°C° 0 mm 1 mps 760 mmHg 92%
05:00 +20°C° 0 mm 1 mps 760 mmHg 89%
06:00 +20°C° 0 mm 1 mps 760 mmHg 85%
07:00 +22°C° 0 mm 1 mps 760 mmHg 76%
08:00 +24°C° 0 mm 1 mps 760 mmHg 66%
09:00 +25°C° 0 mm 2 mps 760 mmHg 57%
10:00 +26°C° 0 mm 2 mps 760 mmHg 53%
11:00 +27°C° 0 mm 2 mps 760 mmHg 49%
12:00 +28°C° 0 mm 2 mps 760 mmHg 44%
13:00 +28°C° 0 mm 2 mps 760 mmHg 45%
14:00 +28°C° 0 mm 2 mps 760 mmHg 45%
15:00 +28°C° 0 mm 2 mps 760 mmHg 45%
16:00 +27°C° 0 mm 2 mps 760 mmHg 51%
17:00 +26°C° 0 mm 2 mps 760 mmHg 57%
18:00 +24°C° 0 mm 2 mps 760 mmHg 62%
19:00 +21°C° 0 mm 2 mps 760 mmHg 71%
20:00 +19°C° 0 mm 2 mps 760 mmHg 81%
21:00 +16°C° 0 mm 2 mps 761 mmHg 90%
22:00 +16°C° 0 mm 1 mps 761 mmHg 92%
23:00 +15°C° 0 mm 1 mps 762 mmHg 94%

1 August, Sunday

Time Temperature Precipitation Wind Pressure Humidity
00:00 +14°C° 0 mm 1 mps 762 mmHg 95%
01:00 +14°C° 0 mm 1 mps 762 mmHg 95%
02:00 +13°C° 0 mm 1 mps 762 mmHg 95%
03:00 +13°C° 0 mm 1 mps 762 mmHg 96%
04:00 +14°C° 0 mm 1 mps 762 mmHg 90%
05:00 +15°C° 0 mm 1 mps 762 mmHg 84%
06:00 +16°C° 0 mm 1 mps 762 mmHg 79%
07:00 +19°C° 0 mm 1 mps 762 mmHg 71%
08:00 +20°C° 0 mm 1 mps 762 mmHg 62%
09:00 +22°C° 0 mm 1 mps 761 mmHg 54%
10:00 +23°C° 0 mm 2 mps 761 mmHg 50%
11:00 +24°C° 0 mm 2 mps 761 mmHg 47%
12:00 +25°C° 0 mm 2 mps 761 mmHg 44%
13:00 +25°C° 0 mm 2 mps 760 mmHg 44%
14:00 +25°C° 0 mm 2 mps 760 mmHg 44%
15:00 +25°C° 0 mm 2 mps 760 mmHg 45%
16:00 +24°C° 0 mm 2 mps 760 mmHg 50%
17:00 +23°C° 0 mm 2 mps 760 mmHg 55%
18:00 +21°C° 0 mm 2 mps 760 mmHg 60%
19:00 +21°C° 0 mm 1 mps 760 mmHg 68%
20:00 +19°C° 0 mm 1 mps 760 mmHg 76%
21:00 +16°C° 0 mm 1 mps 761 mmHg 84%
22:00 +15°C° 0 mm 1 mps 761 mmHg 86%
23:00 +15°C° 0 mm 1 mps 761 mmHg 88%
Show more